Regional Weather Roundup
Issued by NWS Charleston, WV

Home | Current Version | Previous Version | Graphics & Text | Print | Product List | Glossary On
Versions: 1 2 3 4 5 6 7 8 9 10 11 12 13 14 15 16 17 18 19 20 21 22 23 24 25 26 27 28 29 30 31 32 33 34 35 36 37 38 39 40 41 42 43 44 45 46 47 48 49 50
689
ASUS41 KRLX 130910
RWRRLX
West Virginia Regional Weather Roundup
National Weather Service Charleston WV
400 AM EST SAT FEB 13 2016

Note: "fair" indicates few or no clouds below 12,000 feet with no
significant weather and/or obstructions to visibility.

WVZ003-131000-
Northern Panhandle of West Virginia

CITY           SKY/WX    TMP DP  RH WIND       PRES   REMARKS
WHEELING         N/A     11   1  64 NW15G23   30.17R WCI  -5
$$

WVZ009-131000-
Northwest West Virginia

CITY           SKY/WX    TMP DP  RH WIND       PRES   REMARKS
PARKERSBURG      N/A     14   3  61 NW15G22   30.29R WCI  -1
$$

WVZ006-131000-
Western West Virginia

CITY           SKY/WX    TMP DP  RH WIND       PRES   REMARKS
HUNTINGTON     CLOUDY    18   4  54 NW8G18    30.32R WCI   8
$$

WVZ015-131000-
West Central West Virginia

CITY           SKY/WX    TMP DP  RH WIND       PRES   REMARKS
CHARLESTON     CLOUDY    17   2  51 NW12G18   30.28R WCI   4
$$

WVZ022-031-131000-
North Central West Virginia

CITY           SKY/WX    TMP DP  RH WIND       PRES   REMARKS
CLARKSBURG     FLURRIES  14   4  64 W17G24    30.17R WCI  -3
MORGANTOWN     CLOUDY    14   3  61 W9G21     30.14R WCI   2
$$

WVZ025-035-042-045-131000-
Southern West Virginia

CITY           SKY/WX    TMP DP  RH WIND       PRES   REMARKS
BECKLEY        CLOUDY    12   7  80 NW10      30.11R HAZE    WCI  -1
LOGAN          LGT SNOW  16   9  73 NW14G21   30.22R WCI   1
BLUEFIELD      LGT SNOW  12   6  77 NW10G22   30.07R WCI  -1
LEWISBURG      CLOUDY    15   3  59 NW8       30.08R WCI   4
$$

WVZ047-131000-
Northern Mountains of West Virginia

CITY           SKY/WX    TMP DP  RH WIND       PRES   REMARKS
ELKINS           N/A     11  -1  58 W12G28    30.09R WCI  -3
$$

WVZ052-131000-
Eastern Panhandle of West Virginia

CITY           SKY/WX    TMP DP  RH WIND       PRES   REMARKS
MARTINSBURG    CLOUDY    20   4  50 W22G33    30.04R WCI   3
PETERSBURG     CLOUDY    18   4  55 NW6G33    30.13R WCI   9
$$




USA.gov is the U.S. government's official web portal to all federal, state and local government web resources and services.